Regional Weather Roundup
Issued by NWS

Home | Current Version | Previous Version | Graphics & Text | Print | Product List | Glossary On
Versions: 1 2 3 4 5 6 7 8 9 10 11 12 13 14 15 16 17 18 19 20 21 22 23 24 25 26 27 28 29 30 31 32 33 34 35 36 37 38 39 40 41 42 43 44 45 46 47 48 49 50
000
ASUS43 KFSD 090710
RWRSD

WEATHER ROUNDUP FOR SOUTH DAKOTA
NATIONAL WEATHER SERVICE SIOUX FALLS SD
100 AM CST TUE FEB 09 2016

NOTE: "FAIR" INDICATES FEW OR NO CLOUDS BELOW 12,000 FEET WITH NO
SIGNIFICANT WEATHER AND/OR OBSTRUCTIONS TO VISIBILITY.


SDZ001>005-009-010-012>017-090800-
NORTHWEST AND NORTH CENTRAL SOUTH DAKOTA

CITY           SKY/WX    TMP DP  RH WIND       PRES   REMARKS
BUFFALO          N/A     32  12  43 N5        30.16F WCI  27
FAITH            N/A     30  15  53 N9        30.23S WCI  22
MOBRIDGE       CLEAR     22  13  68 NW9       30.22R WCI  12
$$

SDZ012>016-024>037-041>051-057-063-072>074-090800-
SOUTHWEST AND SOUTH CENTRAL SOUTH DAKOTA

CITY           SKY/WX    TMP DP  RH WIND       PRES   REMARKS
RAPID CTY ARPT CLOUDY    33  18  53 N6        30.24R WCI  28
PIERRE         CLEAR     24  17  74 N14       30.23F WCI  12
CUSTER         CLEAR     36  23  59 NW9G21    30.18S
ELLSWORTH AFB  CLOUDY    34  15  46 NW1       30.22R
PHILIP         CLOUDY    32  18  56 NW6       30.25R WCI  26
PINE RIDGE     CLOUDY    31  20  63 CALM      30.23R
SPEARFISH      CLOUDY    41  25  52 W14G22    30.23F
WINNER         PTSUNNY   28  18  66 N12       30.22R WCI  18
$$

SDZ004>011-016>023-039-040-090800-
NORTHEAST SOUTH DAKOTA

CITY           SKY/WX    TMP DP  RH WIND       PRES   REMARKS
ABERDEEN       CLEAR     15   8  73 N10       30.24S WCI   2
WATERTOWN      CLOUDY     8   1  73 N22       30.12F WCI -12
BROOKINGS      CLOUDY     9   3  77 N24       30.10F WCI -12
SISSETON         N/A      6   3  87 N17       30.19S WCI -13
$$

SDZ017-020-022-023-036>040-048>070-090800-
SOUTHEAST SOUTH DAKOTA

CITY           SKY/WX    TMP DP  RH WIND       PRES   REMARKS
SIOUX FALLS    PTCLDY    12   5  73 N25G31    30.12S WCI  -8
HURON          CLEAR     16   9  74 N15       30.22R WCI   1
CHAMBERLAIN    CLOUDY    24  14  65 N14       30.22F WCI  12
MITCHELL       CLEAR     18  11  74 N16       30.22S WCI   3
YANKTON        PTCLDY    19  10  68 N22G29    30.17R WCI   3
$$

ABBREVIATIONS USED IN REMARKS
   TC - TEMPERATURE IN CELSIUS
  WCI - WIND CHILL INDEX
   HX - HEAT INDEX
  VSB - VISIBILITY




USA.gov is the U.S. government's official web portal to all federal, state and local government web resources and services.